Weather in Gubden

Russia / Republic of Dagestan     42°33′53″N   47°33′53″E
temp.,
°C
wind,
m/s
gust,
m/s
humid.,
%
clouds,
%
prec.,
mm/h
press.,
hPa
HPBL,
m
27 january, wed
wed2700:00+1sw12500 0.0 102022
03:00+2sw23403 0.0 101923
06:00+2sw23340 0.0 101823
09:00+5ssw23320 0.0 101746
12:00+10sse233339 0.0 1014168
15:00+9sse224945 0.0 101266
18:00+6sw344920 0.0 101128
21:00+6sw553434 0.0 100949
28 january, thu
thu2800:00+7sw553369 0.0 100855
03:00+7sw653384 0.0 100663
06:00+6sw6536100 0.0 100657
09:00+8sw553395 0.0 100566
12:00+12sw3429100 0.0 1004114
15:00+13wsw3438100 0.0 1002148
18:00+9wsw4449100 0.0 100452
21:00+6wsw3354100 0.0 100739
29 january, fri
fri2900:00+4nw2353100 0.0 100947
03:00+1nw2378100 0.0 1010108
06:00+1nw239099 0.0 1011130
09:00+2nnw237799 0.1 1013420
12:00+3ene3277100 0.0 1012475
15:00+1ene3393100 0.0 1012206
18:00−1nne2293100 0.1 1015195
21:00−1ne2296100 0.4 1016148
30 january, sat
sat3000:00−1e2296100 0.2 1015153
03:00−1se2395100 0.2 1015212
06:00−2se2395100 0.0 1015221
09:000se237797 0.0 1014275
12:00+2ese447439 0.0 1012459
15:00+1ese338452 0.0 1012331
18:000se339279 0.0 1013218
21:00−1sse228755 0.0 101230
31 january, sun
sun3100:000s22750 0.0 101126
03:00+1sw23500 0.0 100929
06:00+1sw33500 0.0 100832
09:00+4sw34400 0.0 1008120
12:00+8w12330 0.0 1007289
15:00+9nw134012 0.0 1007290
18:00+4wnw2354100 0.0 101136
21:00+3w2257100 0.0 101536